Location: ???? ?????
(30.0052°N, 31.2891°E)
Time: 07:59:57
(UTC+00:00)

SEDSat Delta rocket - Visible Passes

Search period start: 06 October 2022 00:00
Search period end: 16 October 2022 00:00
Orbit: 532 x 997 km, 31.4° (Epoch: 05 October)

Date Brightness Start Highest point End Pass type
(mag) Time Alt. Az. Time Alt. Az. Time Alt. Az.
06 Oct 3.9 17:11:16 10° W 17:17:05 69° SSW 17:19:01 45° SE visible
06 Oct 6.3 18:58:04 10° W 18:59:05 14° W 18:59:05 14° W visible
07 Oct 3.8 16:29:57 10° W 16:35:32 75° SSW 16:40:00 20° ESE visible
07 Oct 5.4 18:16:28 10° W 18:20:05 28° SW 18:20:05 28° SW visible
08 Oct 3.7 15:48:40 10° W 15:54:00 81° SSW 16:00:07 10° ESE visible
08 Oct 4.8 17:34:58 10° W 17:40:16 36° SSW 17:41:09 34° S visible
09 Oct 4.6 16:53:34 10° W 16:58:44 40° SSW 17:02:18 21° SSE visible
09 Oct 6.4 18:41:59 10° WSW 18:42:23 11° SW 18:42:23 11° SW visible
10 Oct 4.5 16:12:13 10° W 16:17:15 45° SSW 16:22:58 10° SE visible
10 Oct 5.9 17:59:57 10° WSW 18:03:18 15° SSW 18:03:39 15° SSW visible
11 Oct 5.8 17:18:10 10° WSW 17:21:49 18° SSW 17:25:02 12° S visible
12 Oct 5.7 16:36:33 10° WSW 16:40:22 20° SSW 16:44:31 10° SSE visible
13 Oct 5.5 15:55:02 10° WSW 15:58:56 22° SSW 16:03:13 10° SSE visible
